Temp
19 18 17 17 18 18 22 22 23 24 20 23 26 25 23 21 21 19 17 17 18 18 18 19 18 18 18 19 19 18 19 19 19 18 19 19 19 19 18 18 18 18 18 18 18 18 18 19 19
19 18 17 18 20 20 22 24 22 25 26 26 25 24 23 19 17 16 17 17 19 18 19 19 19 19 18 18 19 18 19 19 18 18 19 19 19 18 18 18 18 18 18 18 18 18 18 18 18
19 18 18 18 19 20 22 25 27 27 26 25 24 23 22 17 16 16 18 18 18 18 18 19 19 18 18 19 18 18 19 19 19 19 18 19 19 19 18 18 18 18 18 18 18 18 18 18 18
19 18 18 19 20 22 23 26 28 27 25 25 23 21 19 18 16 18 18 18 18 18 19 19 18 18 19 19 19 19 19 19 19 19 19 19 19 19 18 18 18 18 18 18 18 18 18 18 18
19 19 18 19 20 22 25 27 27 26 26 23 22 19 17 17 18 18 19 18 18 18 19 18 18 18 19 19 19 19 19 19 19 19 19 19 18 18 18 18 18 19 19 19 19 18 18 18 18
19 19 19 19 22 25 26 28 27 27 24 21 20 19 18 17 18 18 18 18 19 19 19 19 18 18 19 19 19 19 19 19 19 19 19 19 19 19 19 19 18 19 19 19 19 19 19 18 18
21 17 17 19 21 25 29 28 27 26 24 22 21 20 18 17 19 18 18 19 19 19 19 19 18 19 19 19 19 19 19 19 19 19 19 18 18 19 18 18 18 19 19 19 19 19 19 18 18
22 16 17 19 20 22 30 30 27 25 24 22 21 20 19 19 19 19 18 19 19 19 19 19 19 19 20 20 20 19 19 19 19 19 19 19 18 19 19 18 18 19 19 19 19 19 19 19 18
23 19 20 21 25 26 24 28 27 26 24 23 23 20 19 19 19 18 19 19 18 18 19 19 19 20 20 20 20 20 19 19 19 19 18 18 18 18 18 18 18 19 19 19 19 19 19 19 18
24 20 21 24 25 25 27 27 27 25 22 21 20 19 19 19 18 19 19 19 19 19 19 20 20 20 20 20 20 20 20 19 19 19 18 19 18 17 18 18 19 19 19 19 19 19 19 19 19
26 21 23 23 23 26 26 26 28 24 22 21 20 19 19 19 19 19 19 19 19 19 19 19 20 20 20 20 20 20 20 20 20 19 20 19 19 19 18 18 19 19 19 18 19 19 19 18 19
26 27 25 26 26 25 27 26 27 25 23 21 20 20 20 20 20 20 20 20 20 19 19 19 19 19 19 20 20 20 20 20 19 20 20 19 21 19 18 18 18 19 19 18 18 19 19 19 20
27 27 27 28 25 25 27 28 26 26 22 21 20 20 20 19 20 20 20 20 21 20 20 20 20 20 19 19 20 20 20 20 20 20 20 19 19 19 19 19 18 19 19 19 19 19 19 19 20
29 28 27 27 26 26 26 27 28 25 23 21 20 20 20 20 21 21 21 21 21 21 21 20 20 21 20 20 20 20 20 20 20 20 20 19 19 19 19 19 18 19 19 19 19 19 19 20 20
29 29 28 26 26 26 25 27 28 26 24 23 21 21 20 20 21 21 21 21 22 22 21 21 21 21 20 20 19 20 21 21 20 20 20 20 20 19 19 18 18 19 19 19 19 19 19 20 19
28 29 28 29 29 28 27 25 27 27 24 23 23 21 21 21 21 21 22 22 22 22 22 22 21 21 21 20 20 20 20 21 21 21 20 20 20 19 19 19 20 19 18 19 20 19 19 19 20
26 26 27 29 30 29 28 27 26 27 26 24 24 23 23 22 21 22 23 23 22 22 23 22 22 21 21 21 21 20 20 21 21 20 21 21 21 20 20 20 19 19 19 20 19 19 19 20 20
24 26 28 28 30 31 30 28 25 25 27 26 25 25 25 23 22 22 23 24 23 23 23 23 22 22 21 21 21 21 20 20 20 20 21 21 20 20 21 20 20 20 19 19 20 20 20 20 20
27 27 28 30 32 30 30 29 27 26 27 23 25 26 25 25 24 23 23 23 23 23 23 23 22 21 21 20 21 20 20 20 20 20 20 21 20 20 20 20 19 19 19 20 20 20 20 20 20
27 27 28 30 31 31 30 29 30 28 24 22 23 24 26 26 26 25 25 25 24 24 23 23 22 22 21 21 20 20 21 20 21 20 20 20 20 20 20 19 19 19 19 19 20 20 20 20 20
27 27 27 28 31 32 30 29 30 29 25 22 20 23 26 26 26 26 26 25 24 24 23 23 22 22 22 21 20 20 20 19 20 20 20 20 20 20 20 20 20 19 19 19 19 19 20 20 20
25 28 29 29 29 26 31 25 27 30 26 23 22 25 26 26 26 26 26 25 25 24 24 23 23 22 22 21 20 20 20 20 20 20 20 20 20 20 20 20 20 20 19 19 19 20 20 20 20
27 29 29 29 28 28 29 27 28 29 29 26 24 23 24 27 27 26 25 25 25 24 23 23 23 22 21 21 20 20 20 20 20 20 20 21 20 20 20 20 19 20 19 19 19 19 20 20 20
29 28 27 28 27 26 27 28 28 29 28 27 26 25 26 28 27 26 26 25 25 24 24 23 23 22 22 21 20 20 20 20 20 21 20 21 21 21 20 20 19 20 20 20 19 19 19 20 20
28 25 24 24 25 25 26 26 27 31 30 30 29 28 27 28 27 27 25 25 25 24 24 23 23 23 22 21 21 20 21 20 21 21 21 21 21 21 21 20 20 20 20 20 19 19 20 20 20
26 26 24 23 24 25 26 26 28 30 31 34 33 29 28 27 25 27 26 25 25 25 24 24 23 23 23 22 22 21 20 21 21 21 21 21 21 21 21 21 21 21 21 20 20 20 20 21 21
26 25 26 25 25 24 25 27 28 30 30 30 33 32 28 27 27 27 26 26 26 25 25 24 24 23 23 22 22 22 21 21 21 22 21 21 21 21 21 21 21 21 21 21 20 21 20 20 21
28 27 25 25 22 23 26 26 27 28 30 30 29 33 32 31 30 28 27 26 26 26 25 25 24 24 24 23 22 23 23 22 21 22 22 21 21 21 21 21 22 22 22 21 21 20 21 20 21
27 26 27 25 23 21 23 26 28 29 29 30 29 32 33 32 30 28 27 27 27 27 26 25 24 24 23 23 23 22 23 23 22 22 23 22 21 21 22 22 22 22 22 22 21 21 20 20 20
28 28 26 26 23 24 23 27 28 30 31 31 32 33 34 32 31 29 28 28 27 26 26 26 25 24 24 24 23 23 22 23 23 22 23 23 22 22 22 22 22 21 21 21 21 21 21 20 20
Height
1507 1508 1509 1510 1515 1509 1501 1495 1487 1491 1497 1489 1489 1491 1495 1499 1502 1519 1522 1527 1533 1537 1542 1544 1548 1551 1553 1555 1557 1558 1560 1561 1562 1563 1563 1563 1563 1564 1565 1566 1566 1567 1568 1569 1569 1570 1571 1571 1571
1507 1508 1510 1508 1508 1506 1500 1482 1488 1483 1483 1486 1490 1492 1496 1506 1507 1512 1520 1530 1534 1539 1543 1545 1549 1552 1555 1556 1559 1561 1562 1563 1564 1565 1566 1566 1567 1567 1568 1569 1569 1569 1569 1570 1571 1571 1572 1572 1573
1508 1510 1510 1507 1507 1502 1500 1480 1477 1479 1484 1484 1490 1493 1499 1510 1511 1514 1522 1529 1536 1540 1544 1547 1550 1553 1556 1558 1560 1562 1564 1566 1567 1568 1569 1569 1570 1571 1571 1572 1572 1572 1572 1572 1573 1573 1574 1574 1575
1508 1511 1509 1502 1503 1492 1489 1474 1474 1478 1484 1485 1489 1499 1506 1508 1512 1514 1524 1532 1537 1542 1546 1549 1552 1555 1557 1559 1562 1564 1566 1568 1569 1570 1571 1572 1573 1574 1573 1573 1574 1574 1575 1575 1575 1575 1576 1577 1577
1509 1509 1512 1514 1504 1488 1479 1471 1475 1479 1484 1489 1489 1506 1511 1517 1516 1520 1527 1533 1538 1543 1547 1550 1554 1556 1559 1561 1564 1566 1568 1570 1571 1572 1573 1574 1576 1577 1577 1577 1577 1577 1578 1577 1577 1578 1578 1578 1579
1509 1511 1515 1515 1501 1480 1477 1469 1474 1481 1488 1494 1499 1505 1514 1517 1518 1524 1530 1535 1539 1543 1548 1552 1555 1558 1560 1563 1566 1568 1570 1571 1573 1575 1576 1577 1578 1579 1580 1580 1580 1580 1580 1580 1580 1580 1580 1579 1580
1507 1520 1520 1511 1505 1478 1465 1468 1474 1481 1489 1496 1499 1506 1517 1520 1523 1526 1531 1538 1541 1545 1549 1552 1556 1558 1561 1565 1567 1570 1572 1573 1575 1577 1579 1579 1580 1580 1582 1583 1583 1582 1582 1582 1582 1582 1582 1582 1582
1506 1522 1518 1512 1497 1497 1467 1467 1479 1481 1488 1495 1497 1507 1514 1520 1526 1530 1535 1539 1542 1545 1550 1553 1556 1559 1562 1566 1569 1571 1573 1575 1577 1578 1579 1580 1581 1582 1584 1585 1585 1584 1584 1584 1584 1584 1584 1584 1585
1499 1516 1512 1504 1489 1489 1482 1470 1479 1482 1488 1494 1497 1502 1513 1519 1528 1532 1536 1540 1543 1546 1550 1553 1557 1560 1564 1566 1569 1572 1574 1576 1578 1579 1580 1581 1581 1583 1585 1586 1586 1585 1585 1586 1586 1586 1587 1586 1587
1496 1508 1500 1486 1488 1487 1485 1484 1478 1484 1492 1499 1503 1513 1516 1521 1526 1530 1534 1537 1542 1545 1549 1553 1557 1560 1565 1567 1570 1574 1576 1578 1579 1580 1580 1582 1582 1583 1585 1587 1587 1587 1587 1586 1587 1587 1588 1589 1589
1486 1496 1485 1483 1488 1488 1482 1481 1479 1484 1495 1491 1499 1509 1516 1521 1525 1529 1534 1537 1540 1544 1548 1552 1556 1561 1565 1568 1571 1575 1577 1579 1580 1581 1580 1581 1581 1584 1585 1587 1590 1588 1589 1588 1588 1589 1590 1590 1589
1482 1478 1482 1484 1486 1484 1477 1475 1474 1476 1488 1492 1497 1504 1512 1518 1523 1527 1532 1536 1540 1544 1547 1551 1556 1561 1564 1568 1572 1575 1577 1578 1580 1581 1582 1580 1582 1585 1586 1587 1589 1589 1590 1589 1589 1589 1591 1591 1591
1471 1473 1474 1475 1483 1480 1474 1469 1479 1477 1485 1493 1499 1509 1514 1518 1522 1527 1531 1535 1538 1542 1546 1549 1554 1559 1564 1568 1571 1574 1576 1578 1580 1581 1582 1584 1586 1586 1586 1587 1589 1590 1590 1590 1590 1590 1591 1593 1593
1463 1466 1468 1468 1468 1477 1476 1470 1478 1485 1488 1496 1502 1507 1514 1517 1520 1525 1529 1532 1535 1540 1544 1547 1553 1558 1563 1568 1571 1574 1576 1580 1581 1582 1584 1587 1586 1587 1588 1587 1587 1587 1588 1590 1591 1592 1592 1593 1593
1460 1463 1468 1471 1468 1472 1484 1479 1477 1481 1479 1492 1503 1507 1511 1515 1519 1521 1525 1528 1532 1537 1540 1545 1551 1557 1562 1567 1570 1573 1576 1580 1582 1583 1584 1586 1587 1588 1587 1588 1588 1590 1590 1591 1593 1593 1592 1594 1593
1458 1457 1469 1457 1463 1464 1476 1484 1473 1478 1481 1488 1498 1505 1507 1511 1513 1517 1521 1524 1529 1535 1537 1543 1549 1554 1560 1564 1567 1571 1575 1578 1581 1583 1585 1585 1585 1587 1588 1588 1589 1589 1589 1591 1592 1593 1593 1594 1594
1457 1470 1463 1456 1448 1447 1459 1469 1468 1470 1479 1483 1491 1500 1504 1509 1512 1513 1516 1521 1527 1531 1534 1540 1545 1551 1556 1562 1566 1570 1574 1577 1579 1580 1582 1585 1585 1587 1587 1589 1589 1589 1589 1591 1592 1593 1594 1594 1595
1467 1464 1454 1455 1442 1443 1447 1452 1464 1468 1471 1475 1488 1496 1499 1502 1506 1509 1513 1518 1523 1528 1532 1537 1541 1547 1553 1557 1563 1568 1572 1575 1576 1578 1580 1582 1584 1585 1585 1587 1587 1588 1589 1590 1591 1593 1594 1594 1595
1450 1450 1450 1440 1434 1438 1443 1446 1454 1465 1470 1474 1482 1495 1498 1498 1501 1506 1510 1515 1519 1524 1528 1532 1536 1542 1548 1553 1557 1562 1566 1571 1574 1576 1578 1580 1581 1583 1583 1585 1586 1587 1588 1589 1591 1592 1593 1593 1595
1445 1449 1446 1434 1427 1433 1443 1444 1438 1452 1456 1463 1482 1492 1499 1502 1499 1501 1506 1511 1513 1517 1522 1528 1532 1537 1543 1548 1553 1558 1563 1567 1571 1573 1575 1577 1579 1580 1581 1583 1585 1585 1588 1589 1590 1591 1591 1593 1595
1441 1443 1442 1442 1426 1423 1434 1444 1439 1442 1451 1463 1468 1477 1489 1488 1491 1496 1500 1506 1510 1512 1516 1522 1528 1533 1538 1544 1550 1555 1560 1564 1567 1570 1572 1573 1575 1577 1579 1581 1583 1585 1586 1588 1588 1589 1590 1591 1594
1443 1427 1430 1430 1437 1456 1429 1475 1445 1435 1446 1456 1469 1471 1472 1485 1486 1490 1495 1499 1504 1507 1513 1518 1524 1529 1534 1539 1544 1549 1552 1555 1560 1565 1569 1572 1574 1576 1577 1579 1581 1584 1585 1586 1587 1588 1589 1591 1592
1429 1425 1427 1427 1437 1442 1437 1456 1438 1429 1439 1447 1451 1455 1463 1473 1478 1480 1485 1489 1497 1503 1507 1513 1519 1524 1529 1534 1539 1543 1547 1552 1558 1561 1565 1568 1571 1573 1574 1576 1579 1581 1583 1584 1586 1587 1588 1590 1590
1418 1425 1428 1426 1435 1456 1441 1443 1442 1431 1427 1431 1438 1446 1454 1464 1471 1474 1478 1485 1491 1497 1503 1508 1514 1518 1524 1528 1533 1538 1542 1548 1553 1558 1561 1564 1566 1569 1571 1573 1576 1578 1580 1582 1584 1585 1587 1588 1589
1414 1431 1458 1462 1455 1457 1434 1441 1437 1409 1411 1412 1422 1431 1439 1447 1444 1464 1472 1480 1484 1488 1494 1500 1506 1512 1517 1522 1528 1532 1537 1542 1547 1552 1556 1559 1562 1564 1567 1570 1572 1574 1577 1579 1581 1582 1584 1586 1587
1409 1417 1439 1465 1458 1449 1429 1441 1423 1402 1402 1405 1408 1418 1428 1436 1444 1452 1460 1467 1475 1481 1486 1492 1498 1504 1510 1515 1520 1527 1532 1537 1541 1546 1550 1554 1557 1560 1564 1566 1568 1571 1574 1576 1578 1579 1581 1583 1585
1404 1414 1410 1432 1430 1447 1433 1420 1406 1399 1396 1399 1403 1411 1418 1427 1435 1443 1452 1459 1466 1473 1477 1483 1490 1498 1504 1509 1514 1520 1525 1529 1534 1540 1545 1550 1554 1556 1560 1563 1565 1567 1570 1572 1574 1575 1577 1579 1581
1384 1393 1424 1420 1459 1462 1438 1430 1420 1404 1395 1393 1397 1401 1404 1413 1423 1435 1444 1451 1458 1465 1470 1477 1484 1490 1497 1504 1508 1512 1517 1524 1528 1535 1540 1545 1549 1553 1555 1557 1559 1561 1564 1567 1569 1571 1573 1575 1577
1382 1393 1396 1411 1427 1455 1458 1427 1384 1387 1383 1383 1386 1392 1399 1407 1416 1425 1435 1443 1449 1458 1466 1472 1478 1484 1491 1497 1503 1508 1513 1518 1523 1528 1534 1539 1543 1547 1550 1552 1554 1556 1559 1562 1565 1567 1570 1572 1574
1368 1378 1390 1410 1431 1420 1430 1410 1368 1366 1364 1372 1377 1381 1389 1398 1408 1418 1426 1436 1444 1452 1460 1465 1471 1477 1484 1492 1497 1502 1507 1511 1517 1521 1526 1532 1535 1540 1544 1546 1549 1552 1555 1559 1561 1563 1565 1567 1569
Wind_Speed
7 10 9 6 2 2 3 6 1 8 9 14 15 11 10 10 3 5 28 33 32 29 27 27 25 24 21 20 19 18 17 16 15 16 16 17 17 17 16 16 16 16 14 13 13 14 13 14 16
11 10 6 4 3 3 3 8 7 10 19 27 23 17 9 5 8 26 39 37 32 30 29 27 24 22 20 20 19 18 16 15 15 14 15 17 17 16 16 16 14 15 14 13 12 11 12 12 14
9 6 3 1 2 3 3 13 11 20 23 17 7 15 7 6 25 39 41 38 33 29 28 27 24 22 21 19 17 16 15 14 13 14 14 16 16 15 15 16 15 14 14 13 12 11 12 14 14
10 7 6 3 6 10 5 8 19 17 16 13 21 10 9 9 28 34 45 35 28 25 27 24 24 22 20 19 16 15 14 13 12 14 14 14 14 14 16 16 16 16 16 15 13 12 11 13 14
7 2 2 1 7 9 10 20 27 15 16 21 13 9 17 11 23 47 41 33 30 25 25 23 23 21 19 17 15 14 13 12 13 14 13 13 13 14 16 16 17 17 16 14 14 14 13 11 13
6 2 2 3 7 11 11 17 28 20 28 25 22 20 11 23 34 48 35 30 27 24 24 23 22 21 19 16 15 13 11 12 13 13 13 13 12 13 14 14 14 15 15 16 15 14 13 12 14
6 3 6 10 10 11 17 25 20 22 21 16 23 11 23 28 46 42 33 29 26 22 25 24 23 21 18 16 14 12 11 13 14 13 14 14 13 13 12 12 12 13 13 13 13 14 17 16 15
9 4 5 7 2 8 14 26 28 32 20 30 29 9 25 31 44 35 27 30 23 20 25 24 23 21 18 16 14 12 12 14 14 14 15 16 16 13 11 10 10 10 11 12 12 10 13 14 17
26 7 7 7 0 6 26 21 26 22 36 13 14 35 37 34 44 31 29 28 28 22 22 24 23 20 17 15 14 13 13 13 13 15 12 11 13 11 9 6 7 7 8 11 13 12 12 12 13
11 3 8 5 6 6 5 7 27 28 28 28 37 35 38 41 37 36 34 33 31 25 20 23 23 19 17 15 13 13 13 12 11 10 9 6 7 8 6 2 5 5 8 10 8 9 8 10 10
15 8 8 5 8 9 12 12 3 30 18 42 42 42 42 37 38 31 34 37 33 27 22 23 22 18 16 16 13 13 14 12 9 5 11 8 8 7 6 4 5 5 8 8 12 11 9 8 4
17 24 11 9 5 5 12 1 9 32 21 41 46 49 44 36 40 36 34 32 35 31 25 22 19 17 18 15 10 14 11 10 9 5 8 7 9 9 5 6 4 6 8 9 11 11 8 8 9
17 14 22 14 4 29 22 10 2 33 41 42 44 42 38 38 40 31 32 31 33 35 31 27 23 19 19 16 8 12 9 5 7 3 2 6 5 7 3 7 5 8 7 8 8 6 2 4 5
20 20 20 17 17 24 16 7 10 32 41 41 43 43 37 39 38 30 34 34 33 34 37 34 27 22 20 17 12 10 9 9 9 4 4 5 3 5 5 4 2 7 6 7 3 2 4 4 6
27 16 17 16 24 9 14 5 13 35 47 43 40 43 41 41 39 36 42 36 36 36 39 38 31 25 26 21 21 16 19 11 11 6 8 6 5 6 4 5 3 5 9 7 3 5 6 6 5
17 17 14 14 15 18 25 14 8 38 43 42 41 42 43 43 43 44 43 40 36 35 39 36 32 27 26 28 24 21 19 15 11 10 9 6 8 9 9 7 4 6 7 6 3 5 5 4 9
11 13 12 9 25 8 28 12 21 34 37 40 41 41 42 44 44 39 39 37 37 35 38 35 32 27 23 26 27 25 21 20 15 10 11 8 4 9 11 5 5 9 7 8 5 1 2 4 10
12 7 10 15 17 16 9 8 23 32 35 39 37 36 35 45 47 46 40 34 38 41 39 33 30 25 22 18 30 27 23 22 18 12 12 11 9 6 8 7 9 9 6 6 4 4 7 6 5
13 17 15 13 15 10 14 11 29 37 28 34 34 33 36 35 40 47 45 40 41 44 41 37 32 28 26 23 25 28 30 25 22 18 13 14 12 9 11 7 8 5 5 6 8 6 10 8 12
19 21 19 14 16 11 10 12 14 33 36 44 34 30 34 37 37 42 41 42 42 45 43 41 38 34 29 26 23 24 22 23 21 22 14 14 14 13 10 9 7 7 8 8 6 11 8 7 11
22 22 18 15 15 17 16 16 10 23 35 37 53 59 44 46 44 41 45 41 42 44 44 43 41 39 36 31 26 22 22 18 21 18 22 16 18 17 13 12 10 12 12 10 8 12 9 10 10
21 19 21 21 13 6 2 3 7 14 23 26 40 43 46 43 44 44 48 45 44 45 44 42 41 39 37 36 32 29 29 30 26 23 19 22 22 19 16 14 12 14 14 10 8 14 11 8 14
16 14 22 23 15 7 18 11 13 10 16 29 30 50 44 43 45 47 53 52 49 45 47 44 41 39 39 39 36 32 30 29 26 23 23 21 20 17 13 14 13 13 15 11 10 12 12 10 9
15 17 15 17 13 14 11 17 17 13 12 26 35 45 48 41 41 47 55 52 50 48 47 47 44 41 39 42 40 37 34 31 29 29 23 22 21 20 19 15 15 13 14 15 14 10 11 12 13
19 11 9 12 13 13 10 7 10 11 13 18 29 44 52 53 49 50 50 49 50 50 48 48 47 44 41 41 43 40 36 33 31 29 28 25 23 25 21 18 18 18 15 17 15 15 15 13 16
22 20 10 15 9 10 8 10 9 12 8 24 36 49 54 51 49 53 56 56 55 52 50 50 50 48 45 42 41 42 40 35 33 30 30 25 28 26 21 20 19 13 16 18 20 18 16 16 16
19 20 12 3 6 3 3 7 13 17 15 9 15 38 51 53 52 54 56 56 57 55 53 52 51 49 46 43 41 41 42 42 38 33 32 28 26 25 22 21 21 20 17 17 19 22 20 19 17
18 12 13 9 9 10 10 12 15 15 20 13 11 24 42 48 55 55 56 56 57 55 53 51 50 49 45 43 42 42 42 44 42 37 32 32 27 29 25 22 25 24 21 20 19 24 24 22 21
12 12 15 6 6 6 6 10 11 22 22 21 12 23 35 43 52 54 56 57 56 53 53 51 51 50 47 44 42 41 41 43 43 42 36 36 33 29 32 30 23 28 27 24 21 24 26 26 24
16 15 15 10 11 5 4 11 6 7 26 22 19 26 32 45 49 53 58 57 55 54 52 51 51 52 50 44 41 41 40 40 42 43 40 36 38 37 31 33 34 25 28 27 23 22 26 27 28
Wind_Direction
167 134 125 194 273 219 234 211 110 165 173 203 125 118 96 59 121 142 148 150 149 142 140 136 136 137 134 128 122 115 111 103 98 90 90 92 88 85 89 89 91 97 104 104 99 92 87 82 76
163 131 183 247 251 319 227 150 207 189 114 115 111 106 59 75 89 136 147 152 146 143 143 139 140 139 136 131 123 118 114 106 98 94 93 90 88 87 90 94 90 93 99 101 98 92 82 79 85
132 161 242 209 305 259 214 175 141 120 117 119 103 71 69 90 125 140 148 147 143 145 144 141 141 139 137 130 125 121 115 103 102 95 94 90 89 90 89 89 88 89 93 95 93 89 83 73 90
157 209 254 234 264 271 256 116 144 120 109 117 110 76 58 156 137 152 147 138 135 149 148 144 145 143 139 132 127 124 113 107 103 98 95 95 93 92 92 89 87 88 88 85 83 83 82 74 84
177 345 351 305 277 250 230 167 126 120 128 107 95 92 119 125 149 146 135 132 153 151 153 145 145 144 143 134 130 125 114 109 107 98 96 97 95 97 99 97 93 88 83 83 82 81 82 80 82
123 352 352 260 291 289 258 131 125 118 104 102 104 109 106 144 151 142 135 140 159 153 159 149 147 148 145 139 133 127 118 110 106 102 97 97 100 99 105 102 96 88 82 80 80 79 70 77 94
110 78 328 311 314 302 139 143 125 125 123 116 128 112 134 146 151 137 130 147 159 163 162 156 154 153 149 141 139 132 116 108 103 100 96 101 97 99 104 101 97 89 86 83 80 80 76 84 94
161 93 183 265 238 302 84 111 120 133 131 138 134 140 150 154 156 140 145 149 158 170 167 163 159 158 151 145 145 134 117 111 111 108 108 105 96 91 92 91 91 86 92 87 88 77 95 95 96
208 169 254 235 167 334 22 97 123 123 135 147 179 145 146 152 150 154 158 150 157 171 173 168 164 161 155 151 150 138 120 118 116 117 115 115 109 99 87 96 101 105 96 86 91 85 109 108 112
187 141 225 239 354 328 299 277 131 115 107 104 118 137 145 147 158 157 159 160 165 174 178 174 167 166 159 156 154 138 121 119 127 123 115 127 114 120 92 114 128 104 103 86 104 102 110 90 88
202 186 236 262 250 306 257 339 250 120 124 140 143 148 152 155 161 164 172 165 170 176 178 175 169 166 162 156 150 137 130 120 112 111 106 136 147 140 143 182 108 95 114 81 85 83 77 48 35
225 217 197 217 8 5 250 91 306 141 155 149 148 157 157 161 164 167 166 172 174 173 177 173 174 159 163 146 132 132 127 103 112 104 86 140 130 108 131 184 114 112 94 93 80 81 87 63 94
239 177 207 227 153 196 223 178 327 132 144 148 148 157 162 164 166 170 175 181 174 178 182 181 179 166 171 182 175 130 124 157 157 139 46 107 86 135 118 95 136 87 96 77 84 82 96 75 100
245 192 191 171 307 190 216 147 135 139 141 147 155 161 166 173 170 179 177 178 181 186 186 186 184 174 170 170 168 177 204 183 210 190 129 158 241 169 139 120 124 69 81 119 78 108 149 112 116
255 259 188 181 176 190 229 164 160 154 150 154 162 165 171 179 179 182 176 186 190 186 189 189 186 177 177 182 188 186 175 178 172 197 206 209 233 175 137 180 181 124 99 120 95 86 77 116 156
255 256 237 192 226 198 193 201 189 165 153 157 167 175 178 182 183 186 184 184 189 186 191 190 189 187 192 189 192 177 174 170 185 204 222 258 241 185 202 224 163 147 141 132 93 136 149 146 131
255 245 230 198 211 189 190 149 183 172 157 164 172 182 185 186 186 186 180 182 187 195 192 190 194 200 208 203 200 187 177 178 178 225 229 239 228 201 198 164 183 162 127 130 123 181 143 165 138
232 232 235 219 236 214 221 178 170 181 177 167 172 186 192 185 189 193 185 181 188 191 193 195 201 208 211 204 206 201 189 186 183 195 232 239 241 225 213 167 129 150 159 163 152 169 143 124 138
235 243 230 243 227 215 211 215 171 188 158 143 172 194 194 195 185 192 192 192 195 189 193 198 201 204 207 207 205 201 201 196 193 197 216 234 238 243 240 204 176 166 140 137 164 129 146 132 139
235 244 251 231 239 224 240 229 166 180 164 161 171 210 198 196 195 189 185 191 193 192 193 197 201 206 209 217 217 213 198 198 199 200 214 233 237 247 247 223 193 172 183 173 174 165 146 136 161
231 234 245 244 243 243 187 221 214 165 164 161 166 196 201 190 193 191 187 192 195 194 197 199 203 210 216 219 220 216 208 200 206 210 208 226 242 250 242 213 205 199 190 187 220 177 171 159 179
223 233 245 253 260 187 234 251 237 176 174 167 172 171 202 197 190 192 191 194 198 202 203 204 207 212 217 217 218 217 207 201 204 215 216 217 230 242 235 224 213 194 204 196 195 181 181 162 178
227 227 238 250 258 256 203 211 231 202 192 175 172 180 195 194 191 191 194 196 200 206 207 209 210 212 214 216 220 220 214 210 206 212 221 231 231 232 232 224 224 211 213 206 186 187 197 195 169
221 222 247 246 248 253 238 206 235 204 186 169 179 181 191 180 197 195 199 195 196 204 208 210 210 213 217 217 220 220 218 215 212 211 215 228 232 234 233 230 228 227 219 216 206 205 206 203 183
218 205 229 236 229 233 230 230 226 210 209 185 185 178 180 185 191 197 190 192 193 200 205 210 212 214 219 220 218 220 221 221 219 215 215 219 227 230 231 231 230 225 219 216 212 219 231 221 203
208 216 209 216 210 232 235 241 250 261 239 225 186 173 182 187 189 189 190 192 193 199 205 211 215 217 218 221 222 219 221 221 222 220 216 220 226 233 234 235 235 237 224 221 221 217 232 219 210
204 217 216 260 211 247 206 252 261 259 269 210 211 178 179 190 189 188 189 192 197 197 205 211 217 219 220 222 222 219 219 224 225 222 218 217 225 232 236 236 236 236 230 224 226 227 225 231 225
214 175 215 213 201 221 234 218 231 234 246 241 212 197 187 181 182 183 187 191 198 200 205 210 219 222 223 223 224 223 221 221 227 228 221 218 219 223 228 239 240 238 240 236 235 232 231 230 236
200 195 202 186 193 183 208 238 226 223 222 231 218 195 194 177 177 180 185 192 200 201 203 209 216 223 224 225 225 227 227 224 225 231 227 222 220 221 221 230 236 238 238 238 243 237 232 236 239
225 212 197 206 228 223 199 258 317 265 209 209 217 218 192 181 177 178 184 192 196 197 202 208 215 220 226 228 228 228 231 230 227 228 231 226 225 224 223 226 235 238 238 240 246 248 238 234 237